Weather in Smolyaninovo

Russia / Primorsky Krai     43°16′50″N   132°27′10″E
temp.,
°C
wind,
m/s
gust,
m/s
humid.,
%
clouds,
%
prec.,
mm/h
press.,
hPa
HPBL,
m
14 may, fri
fri1401:00+9ese117477 0.0 101414
04:00+7e11803 0.0 101410
07:00+9ese117710 0.0 101530
10:00+17sw125446 0.0 1014388
13:00+19wsw234995 0.0 1014578
16:00+18sw355298 0.0 1012521
19:00+14wsw1270100 0.0 1013109
22:00+11se1179100 0.0 101428
15 may, sat
sat1501:00+12sse237199 0.0 101398
04:00+10se248790 0.0 101286
07:00+12se2685100 0.0 1011260
10:00+18ssw586638 0.0 1011969
13:00+21ssw585971 0.0 10081005
16:00+20ssw586348 0.0 1007834
19:00+15wsw248481 0.0 1008410
22:00+13nnw4986100 0.1 1011590
16 may, sun
sun1601:00+11nne2581100 0.1 1011262
04:00+11nne2375100 0.1 1010134
07:00+11nne1270100 0.0 101064
10:00+12nne1269100 0.0 101071
13:00+14wsw1166100 0.0 1010153
16:00+13sw1171100 0.0 1009152
19:00+13sw1273100 0.0 100893
22:00+8ssw1190100 0.0 100913
17 may, mon
mon1701:00+8e1193100 0.0 100811
04:00+8ene1187100 0.0 100712
07:00+10ene1172100 0.0 100629
10:00+18nnw1244100 0.0 1005504
13:00+21w3337100 0.0 10041522
16:00+19sw3444100 0.0 1003624
19:00+14ssw1261100 0.0 100489
22:00+11se1162100 0.0 100513
18 may, tue
tue1801:00+12ese1157100 0.0 100511
04:00+11e1160100 0.0 100513
07:00+12e1163100 0.0 100620
10:00+19nw1147100 0.0 1006302
13:00+23wsw1141100 0.0 1005587
16:00+21sw2347100 0.0 1005405
19:00+17ssw116397 0.0 100668
22:00+11sse11735 0.0 100915